GEFSMA_prec_meanprecacc_270.txt.gz
Total_Precipitation_Accumulation
2.44 2.48 2.52 2.53 2.37 2.47 2.65 2.92 2.79 2.83 2.86 2.61 2.28 2.17 2.33 2.45 2.54 2.63 2.69 2.86 2.76 2.80 3.38 3.57 3.23 2.80 2.54 2.13 1.84 1.57 1.41 1.32 1.18 0.95 0.83 0.87 0.94 1.01 0.93 0.81 0.77 0.74 0.65
2.80 2.74 2.57 2.60 2.46 2.43 2.55 2.81 2.87 3.20 3.17 3.07 2.61 2.41 2.49 2.57 2.62 2.76 2.70 2.95 2.83 2.66 3.01 3.37 3.43 3.22 2.96 2.69 2.35 2.02 1.78 1.64 1.45 1.17 1.03 0.96 0.99 1.05 0.99 0.97 0.91 0.84 0.75
2.90 2.87 2.79 2.60 2.55 2.60 2.80 2.88 2.92 3.18 3.20 3.12 2.98 2.79 2.64 2.40 2.29 2.41 2.46 2.60 2.56 2.56 2.73 3.03 3.32 3.41 3.32 3.16 2.96 2.71 2.33 1.99 1.72 1.43 1.20 1.04 0.96 1.01 1.00 1.03 1.05 1.03 0.93
2.85 2.97 2.79 2.54 2.61 2.58 2.74 3.04 3.14 3.35 3.53 3.52 3.25 2.97 2.75 2.60 2.37 2.34 2.26 2.23 2.47 2.18 2.45 2.84 3.08 3.23 3.56 3.75 3.83 3.74 3.22 2.59 2.07 1.81 1.55 1.31 1.13 1.08 1.03 1.05 1.11 1.08 0.99
2.73 2.89 2.74 2.65 2.68 2.86 2.89 2.70 3.29 3.63 3.73 3.71 3.08 2.94 2.58 2.45 2.28 2.15 2.21 2.07 2.21 2.27 2.30 2.36 2.54 2.75 3.38 4.14 4.55 4.60 4.35 3.53 2.78 2.39 2.15 1.86 1.56 1.35 1.16 1.11 1.11 1.03 0.90
2.64 2.90 2.63 2.63 2.77 3.04 3.12 3.21 3.65 3.75 3.59 3.77 3.12 2.72 2.33 1.98 1.93 1.94 1.82 1.84 1.86 1.82 2.01 2.41 2.73 2.47 2.95 3.62 4.02 4.29 4.63 4.52 3.84 3.06 2.68 2.39 2.17 1.87 1.52 1.33 1.25 1.19 1.06
2.75 3.17 2.81 3.06 2.99 3.03 3.08 3.27 3.55 3.55 3.34 3.66 3.65 2.94 2.12 1.66 1.65 1.54 1.51 1.60 1.56 1.59 1.88 2.42 2.79 2.86 2.62 2.56 2.80 3.26 3.96 4.47 4.38 3.74 3.32 3.05 2.86 2.45 2.01 1.78 1.58 1.43 1.31
2.87 2.93 3.13 3.05 3.07 3.16 2.98 3.08 3.41 3.26 2.88 3.30 3.62 3.56 2.69 2.13 1.69 1.20 1.33 1.41 1.50 1.69 1.71 1.79 2.25 2.79 2.69 2.76 2.50 2.35 2.99 3.79 4.29 4.31 3.98 3.61 3.32 2.92 2.52 2.24 1.95 1.68 1.43
2.91 2.97 2.92 2.87 2.97 2.91 2.86 2.89 3.09 3.19 3.01 3.04 3.42 3.74 3.09 2.40 1.88 1.40 1.33 1.29 1.58 1.91 1.89 1.88 2.06 2.44 2.59 2.83 2.95 2.80 2.55 2.82 3.66 4.69 4.82 4.20 3.44 2.87 2.58 2.51 2.42 2.17 1.92
3.18 2.96 2.79 2.72 2.68 2.60 2.70 2.48 2.76 2.99 3.11 2.83 2.97 3.03 2.89 2.77 2.58 1.90 1.50 1.39 1.65 1.88 2.00 1.99 2.06 2.27 2.45 2.76 3.02 2.85 2.35 2.14 2.56 3.66 4.43 4.39 3.80 3.03 2.63 2.72 3.07 2.97 2.55
3.24 2.88 2.81 2.76 2.69 2.57 2.48 2.42 2.64 2.59 2.68 2.69 2.73 2.78 2.83 2.79 2.57 2.29 1.92 1.78 1.73 1.51 1.54 1.70 1.94 2.18 2.29 2.52 2.84 2.71 2.48 2.37 2.31 2.46 2.86 3.27 3.50 3.28 3.01 3.05 3.49 3.76 3.54
2.82 2.61 2.54 2.53 2.44 2.45 2.45 2.42 2.45 2.42 2.49 2.57 2.57 2.59 2.70 2.69 2.62 2.64 2.33 2.10 1.92 1.64 1.56 1.62 1.79 1.95 2.04 2.13 2.17 2.34 2.29 2.28 2.16 2.04 2.04 2.15 2.43 2.80 3.07 3.35 3.81 4.22 4.39
2.08 2.08 2.16 2.21 2.15 2.19 2.22 2.36 2.29 2.21 2.32 2.46 2.43 2.43 2.52 2.52 2.59 2.71 2.62 2.18 2.01 1.83 1.88 1.72 1.62 1.79 1.84 2.04 2.21 2.19 1.92 1.91 1.75 1.67 1.69 1.74 1.91 2.17 2.41 2.68 3.19 3.76 4.20
1.81 1.89 1.98 1.97 1.93 1.95 1.91 2.17 2.04 1.99 2.10 2.16 2.07 2.38 2.39 2.16 2.37 2.54 2.63 2.63 2.41 2.24 2.26 1.99 1.74 1.73 1.84 1.98 2.14 2.10 1.79 1.68 1.46 1.34 1.34 1.36 1.41 1.58 1.82 2.09 2.37 2.68 3.03
1.81 1.88 1.88 1.92 1.91 1.94 2.00 2.12 1.97 1.93 2.12 2.09 2.04 2.26 2.21 2.08 2.17 2.30 2.52 2.74 2.87 2.65 2.47 2.28 1.96 1.78 1.78 1.86 2.11 1.95 1.94 1.81 1.48 1.36 1.29 1.23 1.19 1.26 1.42 1.63 1.82 2.01 2.27
1.88 1.91 1.91 1.99 1.91 1.86 1.90 1.95 1.75 1.77 2.00 2.06 2.13 2.33 2.28 2.19 2.25 2.31 2.47 2.76 3.05 3.03 2.61 2.14 1.97 1.89 1.98 1.92 2.15 1.90 1.83 1.88 1.61 1.38 1.26 1.23 1.20 1.22 1.29 1.45 1.62 1.77 1.92
1.89 1.84 1.81 1.82 1.81 1.78 1.83 1.85 1.67 1.81 1.97 2.02 2.04 2.19 2.25 2.37 2.43 2.43 2.54 2.68 2.94 3.17 2.85 2.29 2.17 2.17 2.30 2.28 2.19 1.95 1.73 1.64 1.48 1.43 1.28 1.20 1.18 1.21 1.26 1.32 1.45 1.60 1.69
1.87 1.88 1.88 1.83 1.73 1.75 1.92 1.99 1.88 1.96 2.05 2.03 2.07 2.21 2.12 2.28 2.46 2.42 2.52 2.53 2.65 2.98 2.86 2.58 2.52 2.47 2.44 2.35 2.35 2.19 1.88 1.70 1.61 1.59 1.37 1.25 1.21 1.18 1.21 1.23 1.33 1.51 1.64
1.93 2.00 2.02 2.02 1.99 2.00 2.02 2.11 2.20 2.16 2.08 2.01 2.06 2.06 2.03 2.23 2.23 2.32 2.45 2.44 2.44 2.61 2.78 2.70 2.65 2.73 2.69 2.58 2.51 2.34 2.16 2.09 1.78 1.69 1.60 1.49 1.47 1.43 1.40 1.38 1.38 1.45 1.55
1.98 2.08 2.09 2.21 2.37 2.41 2.40 2.37 2.27 2.19 2.13 2.09 2.06 2.01 1.98 2.01 2.04 2.12 2.24 2.36 2.45 2.58 2.72 2.75 2.79 2.91 2.88 2.93 2.92 2.69 2.56 2.46 2.13 1.76 1.77 1.66 1.58 1.47 1.38 1.31 1.29 1.34 1.45
1.83 2.13 2.28 2.36 2.63 2.76 2.58 2.58 2.50 2.38 2.38 2.21 2.08 2.00 1.87 1.88 1.94 1.97 1.93 2.05 2.21 2.36 2.41 2.50 2.60 2.81 2.88 2.99 2.97 2.82 2.69 2.68 2.49 2.04 1.88 1.76 1.68 1.57 1.53 1.49 1.39 1.33 1.35
1.72 1.90 2.04 2.17 2.22 2.06 2.20 2.22 2.20 2.24 2.28 2.17 2.10 2.04 1.90 1.81 1.78 1.72 1.62 1.64 1.75 1.88 2.07 2.31 2.39 2.59 2.78 2.95 3.15 3.20 3.03 2.85 2.70 2.40 2.28 2.14 1.87 1.80 1.63 1.48 1.47 1.28 1.16
1.67 1.77 1.82 1.88 1.84 1.90 1.93 1.72 1.65 1.63 1.81 1.93 2.00 1.99 1.75 1.60 1.68 1.60 1.61 1.57 1.57 1.70 1.82 2.06 2.24 2.33 2.57 2.78 3.03 3.17 3.17 3.06 2.87 2.70 2.55 2.42 2.08 1.87 1.67 1.55 1.48 1.22 1.07
1.77 1.77 1.81 1.85 1.92 1.90 1.80 1.57 1.55 1.51 1.64 1.76 1.82 1.86 1.82 1.74 1.73 1.77 1.68 1.56 1.48 1.55 1.65 1.62 1.67 1.85 2.13 2.50 2.68 2.72 2.89 2.93 2.80 2.62 2.54 2.49 2.23 2.01 1.79 1.67 1.61 1.31 1.13
2.01 1.97 2.04 2.06 2.02 1.93 1.79 1.60 1.60 1.55 1.65 1.69 1.69 1.70 1.70 1.65 1.74 1.61 1.51 1.49 1.48 1.52 1.50 1.47 1.42 1.47 1.62 1.85 2.19 2.36 2.46 2.43 2.32 2.08 1.96 2.03 2.00 1.97 1.90 1.78 1.63 1.50 1.28
2.45 2.46 2.35 2.19 2.05 1.92 1.90 1.62 1.53 1.47 1.55 1.63 1.70 1.64 1.58 1.46 1.44 1.39 1.36 1.47 1.46 1.45 1.48 1.41 1.31 1.24 1.21 1.36 1.70 1.89 2.00 2.05 1.94 1.87 1.60 1.59 1.63 1.69 1.81 1.68 1.53 1.48 1.40

GEFSMA_prec_meanprecacc_276.txt.gz
Total_Precipitation_Accumulation
2.52 2.55 2.59 2.60 2.44 2.54 2.72 2.98 2.84 2.90 2.94 2.68 2.34 2.23 2.40 2.52 2.60 2.70 2.80 2.98 2.88 2.93 3.53 3.74 3.39 2.96 2.73 2.30 2.01 1.73 1.54 1.44 1.27 1.01 0.88 0.93 1.00 1.09 1.02 0.88 0.83 0.79 0.70
2.86 2.82 2.65 2.68 2.53 2.50 2.62 2.86 2.92 3.27 3.24 3.14 2.66 2.46 2.54 2.62 2.65 2.80 2.76 3.05 2.99 2.81 3.17 3.55 3.61 3.37 3.10 2.84 2.53 2.21 1.95 1.80 1.58 1.27 1.10 1.03 1.06 1.14 1.09 1.08 1.01 0.93 0.83
2.96 2.93 2.84 2.66 2.61 2.66 2.87 2.96 2.98 3.24 3.25 3.17 3.04 2.82 2.67 2.44 2.33 2.46 2.52 2.69 2.71 2.71 2.91 3.24 3.51 3.57 3.49 3.35 3.17 2.93 2.54 2.18 1.88 1.53 1.28 1.11 1.03 1.08 1.10 1.13 1.14 1.11 1.02
2.90 3.02 2.83 2.59 2.67 2.63 2.82 3.15 3.26 3.45 3.63 3.61 3.34 3.02 2.80 2.66 2.43 2.40 2.31 2.31 2.57 2.26 2.55 2.97 3.21 3.37 3.75 3.97 4.06 4.01 3.52 2.85 2.26 1.95 1.67 1.40 1.19 1.14 1.11 1.14 1.20 1.16 1.09
2.75 2.93 2.78 2.71 2.74 2.91 2.94 2.74 3.36 3.71 3.83 3.80 3.16 3.01 2.65 2.52 2.36 2.20 2.27 2.13 2.28 2.35 2.40 2.46 2.63 2.87 3.57 4.40 4.79 4.86 4.63 3.78 2.98 2.57 2.31 1.99 1.65 1.42 1.23 1.21 1.24 1.14 1.01
2.66 2.94 2.68 2.68 2.82 3.10 3.18 3.26 3.70 3.80 3.64 3.83 3.18 2.78 2.39 2.04 1.99 2.00 1.86 1.89 1.93 1.88 2.09 2.51 2.84 2.56 3.07 3.79 4.23 4.54 4.88 4.73 4.03 3.25 2.87 2.55 2.30 1.99 1.62 1.44 1.36 1.29 1.16
2.79 3.22 2.87 3.13 3.04 3.09 3.14 3.32 3.58 3.58 3.38 3.70 3.69 2.98 2.18 1.71 1.69 1.59 1.56 1.67 1.64 1.64 1.93 2.48 2.85 2.91 2.68 2.63 2.89 3.37 4.09 4.61 4.51 3.86 3.43 3.18 3.03 2.65 2.21 1.92 1.71 1.55 1.43
2.91 2.97 3.18 3.10 3.12 3.20 3.02 3.11 3.44 3.28 2.91 3.33 3.65 3.60 2.75 2.19 1.73 1.24 1.37 1.47 1.57 1.74 1.74 1.82 2.29 2.83 2.74 2.81 2.54 2.39 3.03 3.84 4.36 4.39 4.06 3.72 3.46 3.11 2.73 2.43 2.09 1.80 1.55
2.94 3.00 2.95 2.91 3.01 2.94 2.90 2.92 3.12 3.23 3.05 3.06 3.44 3.78 3.14 2.45 1.92 1.44 1.36 1.32 1.61 1.93 1.91 1.91 2.08 2.46 2.62 2.87 3.00 2.84 2.60 2.86 3.72 4.77 4.92 4.30 3.53 2.96 2.70 2.66 2.57 2.29 2.06
3.21 2.99 2.81 2.75 2.73 2.64 2.73 2.50 2.79 3.03 3.16 2.86 2.99 3.05 2.93 2.81 2.62 1.95 1.53 1.42 1.66 1.90 2.02 2.00 2.07 2.28 2.46 2.78 3.06 2.89 2.39 2.19 2.64 3.75 4.51 4.48 3.87 3.11 2.73 2.89 3.23 3.11 2.71
3.26 2.90 2.84 2.80 2.74 2.62 2.51 2.44 2.66 2.62 2.72 2.73 2.76 2.80 2.86 2.83 2.62 2.35 1.97 1.80 1.74 1.53 1.55 1.71 1.95 2.19 2.31 2.54 2.88 2.77 2.52 2.41 2.37 2.53 2.95 3.36 3.60 3.38 3.09 3.15 3.61 3.87 3.67
2.84 2.63 2.57 2.58 2.49 2.49 2.48 2.45 2.47 2.44 2.52 2.60 2.61 2.62 2.74 2.75 2.68 2.69 2.38 2.13 1.93 1.65 1.57 1.63 1.79 1.96 2.06 2.16 2.22 2.39 2.33 2.31 2.18 2.07 2.08 2.20 2.50 2.88 3.14 3.42 3.90 4.32 4.51
2.10 2.10 2.19 2.25 2.19 2.23 2.25 2.39 2.32 2.24 2.35 2.50 2.47 2.46 2.54 2.56 2.61 2.73 2.65 2.20 2.02 1.84 1.89 1.73 1.62 1.79 1.84 2.05 2.23 2.22 1.96 1.94 1.79 1.71 1.73 1.77 1.95 2.20 2.44 2.72 3.25 3.85 4.29
1.82 1.91 2.01 1.99 1.96 1.98 1.93 2.20 2.07 2.03 2.14 2.21 2.10 2.41 2.41 2.18 2.39 2.57 2.65 2.65 2.42 2.25 2.27 2.00 1.74 1.73 1.85 1.99 2.15 2.11 1.82 1.71 1.49 1.38 1.39 1.40 1.44 1.60 1.84 2.12 2.40 2.72 3.08
1.81 1.90 1.89 1.93 1.92 1.96 2.02 2.14 2.00 1.96 2.15 2.11 2.06 2.27 2.22 2.09 2.19 2.31 2.54 2.75 2.88 2.66 2.49 2.29 1.97 1.78 1.79 1.86 2.11 1.96 1.95 1.83 1.51 1.39 1.33 1.27 1.22 1.28 1.44 1.65 1.84 2.03 2.30
1.88 1.92 1.92 2.01 1.93 1.89 1.93 1.97 1.77 1.78 2.02 2.07 2.14 2.34 2.29 2.20 2.26 2.32 2.48 2.77 3.06 3.05 2.63 2.15 1.98 1.90 1.98 1.92 2.15 1.90 1.83 1.89 1.63 1.40 1.29 1.28 1.24 1.24 1.31 1.46 1.63 1.78 1.93
1.89 1.85 1.82 1.83 1.84 1.81 1.85 1.88 1.68 1.82 1.98 2.03 2.05 2.21 2.26 2.37 2.43 2.44 2.55 2.69 2.95 3.18 2.86 2.31 2.18 2.17 2.30 2.28 2.20 1.95 1.73 1.64 1.48 1.44 1.29 1.22 1.20 1.24 1.29 1.34 1.47 1.62 1.71
1.87 1.89 1.88 1.84 1.74 1.76 1.94 2.00 1.89 1.97 2.07 2.06 2.09 2.22 2.13 2.29 2.46 2.42 2.52 2.54 2.66 3.00 2.88 2.59 2.54 2.47 2.45 2.36 2.36 2.20 1.88 1.70 1.62 1.60 1.39 1.28 1.24 1.21 1.24 1.25 1.35 1.52 1.65
1.93 2.00 2.02 2.02 2.00 2.02 2.04 2.12 2.21 2.17 2.09 2.02 2.07 2.08 2.04 2.23 2.24 2.33 2.46 2.45 2.45 2.62 2.79 2.72 2.66 2.74 2.70 2.59 2.53 2.35 2.17 2.10 1.79 1.70 1.61 1.51 1.50 1.47 1.42 1.40 1.40 1.46 1.58
1.98 2.08 2.09 2.21 2.38 2.43 2.42 2.38 2.28 2.21 2.14 2.10 2.07 2.03 2.00 2.02 2.05 2.13 2.25 2.37 2.45 2.59 2.73 2.76 2.80 2.92 2.89 2.94 2.93 2.71 2.57 2.48 2.15 1.77 1.78 1.67 1.61 1.50 1.41 1.33 1.30 1.36 1.47
1.84 2.14 2.28 2.36 2.64 2.77 2.58 2.59 2.51 2.39 2.39 2.22 2.09 2.00 1.87 1.89 1.95 1.98 1.93 2.06 2.22 2.38 2.42 2.51 2.61 2.83 2.88 2.99 2.98 2.83 2.70 2.69 2.50 2.06 1.89 1.77 1.70 1.59 1.55 1.51 1.40 1.35 1.37
1.73 1.91 2.05 2.17 2.22 2.06 2.20 2.23 2.21 2.26 2.29 2.19 2.11 2.05 1.90 1.81 1.78 1.73 1.63 1.65 1.76 1.90 2.09 2.32 2.41 2.61 2.80 2.96 3.17 3.21 3.05 2.86 2.72 2.42 2.30 2.16 1.89 1.82 1.65 1.50 1.49 1.30 1.18
1.69 1.78 1.83 1.88 1.85 1.90 1.93 1.72 1.66 1.65 1.82 1.94 2.01 2.00 1.76 1.61 1.69 1.61 1.63 1.59 1.59 1.71 1.83 2.08 2.26 2.36 2.60 2.80 3.05 3.19 3.19 3.08 2.89 2.72 2.57 2.46 2.12 1.90 1.69 1.57 1.51 1.24 1.09
1.78 1.78 1.82 1.85 1.92 1.90 1.81 1.58 1.56 1.52 1.65 1.77 1.83 1.87 1.83 1.76 1.75 1.79 1.70 1.57 1.48 1.56 1.66 1.63 1.70 1.88 2.16 2.53 2.70 2.75 2.92 2.95 2.83 2.65 2.56 2.52 2.26 2.04 1.81 1.70 1.64 1.34 1.15
2.02 1.98 2.05 2.08 2.04 1.95 1.81 1.62 1.62 1.57 1.67 1.71 1.70 1.71 1.72 1.67 1.75 1.63 1.52 1.51 1.50 1.53 1.52 1.48 1.43 1.48 1.63 1.85 2.20 2.37 2.48 2.45 2.35 2.11 1.98 2.05 2.02 1.99 1.92 1.80 1.65 1.52 1.31
2.46 2.48 2.36 2.21 2.07 1.95 1.92 1.64 1.56 1.49 1.58 1.65 1.72 1.66 1.60 1.47 1.46 1.41 1.37 1.49 1.48 1.47 1.50 1.43 1.33 1.26 1.22 1.37 1.70 1.91 2.02 2.08 1.98 1.91 1.64 1.62 1.66 1.72 1.83 1.70 1.55 1.50 1.43

GEFSMA_prec_meanprecacc_282.txt.gz
Total_Precipitation_Accumulation
2.62 2.63 2.67 2.69 2.52 2.61 2.79 3.05 2.91 2.99 3.06 2.84 2.54 2.40 2.52 2.61 2.70 2.79 2.90 3.07 2.97 3.03 3.60 3.80 3.44 3.03 2.85 2.41 2.17 1.87 1.66 1.54 1.37 1.10 0.95 0.98 1.05 1.13 1.08 0.95 0.90 0.86 0.76
2.94 2.90 2.71 2.75 2.61 2.57 2.69 2.95 2.99 3.35 3.37 3.32 2.85 2.62 2.66 2.70 2.74 2.88 2.85 3.15 3.08 2.92 3.28 3.66 3.70 3.46 3.23 2.97 2.69 2.35 2.07 1.92 1.71 1.37 1.19 1.10 1.12 1.19 1.15 1.16 1.09 1.04 0.98
3.02 2.97 2.90 2.74 2.69 2.74 2.95 3.02 3.04 3.31 3.35 3.31 3.19 2.94 2.79 2.55 2.43 2.55 2.60 2.77 2.77 2.76 2.98 3.34 3.60 3.65 3.61 3.45 3.31 3.07 2.66 2.31 2.02 1.68 1.39 1.19 1.09 1.16 1.18 1.21 1.22 1.21 1.18
2.94 3.07 2.89 2.66 2.74 2.70 2.88 3.21 3.34 3.52 3.73 3.72 3.45 3.13 2.90 2.77 2.53 2.47 2.36 2.37 2.64 2.34 2.62 3.05 3.29 3.45 3.86 4.08 4.19 4.15 3.65 2.97 2.39 2.08 1.78 1.49 1.28 1.22 1.19 1.23 1.27 1.24 1.16
2.78 2.98 2.85 2.78 2.80 2.97 3.00 2.79 3.42 3.77 3.92 3.89 3.23 3.08 2.72 2.59 2.43 2.25 2.31 2.17 2.36 2.45 2.54 2.58 2.73 2.96 3.71 4.52 4.92 5.00 4.77 3.92 3.10 2.67 2.40 2.07 1.74 1.50 1.30 1.29 1.31 1.20 1.06
2.68 2.98 2.72 2.73 2.86 3.16 3.25 3.32 3.76 3.85 3.72 3.91 3.23 2.85 2.45 2.10 2.04 2.05 1.92 1.97 2.03 1.99 2.21 2.66 3.01 2.73 3.22 3.90 4.33 4.66 5.01 4.86 4.16 3.36 2.95 2.63 2.38 2.05 1.70 1.53 1.46 1.38 1.22
2.81 3.26 2.91 3.18 3.09 3.15 3.19 3.36 3.65 3.64 3.43 3.75 3.76 3.06 2.25 1.77 1.75 1.65 1.64 1.77 1.74 1.73 2.00 2.57 2.96 3.01 2.79 2.69 2.94 3.45 4.18 4.72 4.65 3.99 3.53 3.25 3.09 2.71 2.28 2.03 1.81 1.64 1.51
2.93 3.00 3.24 3.15 3.17 3.27 3.07 3.17 3.49 3.34 2.96 3.37 3.71 3.68 2.85 2.29 1.80 1.29 1.45 1.54 1.64 1.80 1.79 1.87 2.33 2.88 2.79 2.86 2.57 2.42 3.08 3.91 4.45 4.49 4.14 3.79 3.53 3.18 2.80 2.49 2.16 1.86 1.61
2.97 3.04 2.99 2.95 3.05 2.99 2.96 2.97 3.17 3.28 3.10 3.10 3.49 3.85 3.23 2.54 2.00 1.50 1.41 1.37 1.64 1.97 1.95 1.93 2.11 2.48 2.65 2.91 3.04 2.86 2.62 2.89 3.77 4.84 5.00 4.37 3.59 3.02 2.76 2.72 2.64 2.35 2.12
3.23 3.01 2.83 2.78 2.77 2.69 2.78 2.55 2.85 3.08 3.21 2.92 3.05 3.10 2.96 2.87 2.70 2.02 1.59 1.45 1.70 1.92 2.04 2.01 2.09 2.30 2.47 2.80 3.09 2.91 2.41 2.21 2.66 3.81 4.59 4.55 3.95 3.17 2.79 2.94 3.29 3.17 2.78
3.27 2.91 2.85 2.83 2.78 2.66 2.55 2.48 2.70 2.66 2.78 2.79 2.82 2.85 2.91 2.88 2.68 2.42 2.03 1.85 1.77 1.54 1.56 1.72 1.96 2.21 2.33 2.57 2.91 2.78 2.53 2.43 2.39 2.58 3.02 3.43 3.66 3.44 3.14 3.19 3.66 3.92 3.73
2.85 2.63 2.57 2.60 2.52 2.53 2.51 2.48 2.51 2.48 2.56 2.66 2.67 2.66 2.79 2.80 2.73 2.74 2.43 2.18 1.96 1.66 1.57 1.64 1.80 1.97 2.07 2.18 2.23 2.40 2.34 2.32 2.19 2.09 2.12 2.23 2.54 2.92 3.19 3.48 3.95 4.37 4.57
2.11 2.11 2.20 2.27 2.21 2.25 2.27 2.41 2.35 2.28 2.38 2.54 2.52 2.50 2.58 2.60 2.65 2.76 2.68 2.22 2.04 1.86 1.90 1.74 1.63 1.80 1.85 2.07 2.25 2.23 1.96 1.95 1.80 1.72 1.74 1.80 1.98 2.24 2.48 2.76 3.29 3.89 4.34
1.83 1.92 2.02 2.01 1.97 1.99 1.95 2.22 2.09 2.05 2.16 2.23 2.13 2.44 2.45 2.21 2.42 2.60 2.67 2.67 2.45 2.27 2.29 2.01 1.76 1.75 1.87 2.02 2.17 2.12 1.82 1.71 1.50 1.38 1.39 1.41 1.46 1.63 1.87 2.14 2.42 2.75 3.11
1.82 1.91 1.90 1.94 1.94 1.98 2.04 2.16 2.02 1.97 2.17 2.13 2.08 2.31 2.26 2.11 2.21 2.33 2.56 2.77 2.92 2.70 2.52 2.32 2.00 1.81 1.82 1.89 2.13 1.97 1.97 1.83 1.52 1.40 1.33 1.27 1.23 1.29 1.45 1.66 1.85 2.05 2.31
1.89 1.93 1.93 2.01 1.94 1.90 1.94 1.99 1.78 1.80 2.03 2.09 2.16 2.35 2.31 2.21 2.28 2.34 2.50 2.80 3.10 3.09 2.67 2.19 2.02 1.93 2.01 1.95 2.17 1.93 1.86 1.90 1.63 1.40 1.29 1.28 1.25 1.25 1.32 1.47 1.64 1.80 1.95
1.91 1.87 1.84 1.84 1.85 1.82 1.87 1.90 1.69 1.83 2.00 2.04 2.06 2.22 2.27 2.39 2.45 2.45 2.56 2.71 2.99 3.23 2.90 2.35 2.23 2.22 2.34 2.31 2.21 1.98 1.75 1.66 1.50 1.44 1.30 1.23 1.21 1.24 1.29 1.35 1.48 1.63 1.72
1.89 1.91 1.91 1.86 1.75 1.77 1.96 2.02 1.89 1.98 2.08 2.07 2.10 2.23 2.14 2.30 2.48 2.43 2.54 2.56 2.68 3.02 2.90 2.63 2.58 2.52 2.49 2.38 2.38 2.21 1.89 1.71 1.64 1.61 1.39 1.28 1.25 1.22 1.24 1.26 1.36 1.53 1.67
1.95 2.03 2.05 2.05 2.02 2.04 2.06 2.14 2.22 2.18 2.11 2.04 2.09 2.10 2.06 2.25 2.26 2.35 2.48 2.47 2.46 2.63 2.81 2.74 2.69 2.77 2.72 2.61 2.55 2.38 2.19 2.12 1.80 1.71 1.62 1.52 1.50 1.47 1.43 1.42 1.42 1.48 1.59
2.00 2.11 2.13 2.25 2.41 2.45 2.44 2.40 2.31 2.23 2.18 2.14 2.10 2.05 2.01 2.03 2.06 2.15 2.27 2.39 2.47 2.60 2.74 2.78 2.82 2.94 2.91 2.96 2.95 2.74 2.59 2.50 2.16 1.79 1.79 1.68 1.62 1.51 1.43 1.36 1.33 1.38 1.49
1.85 2.16 2.32 2.41 2.68 2.80 2.61 2.62 2.55 2.43 2.43 2.25 2.12 2.02 1.89 1.90 1.96 1.99 1.95 2.08 2.24 2.39 2.43 2.53 2.64 2.86 2.91 3.02 3.01 2.85 2.72 2.72 2.53 2.09 1.92 1.79 1.72 1.61 1.57 1.53 1.43 1.37 1.38
1.75 1.93 2.07 2.19 2.24 2.08 2.23 2.26 2.24 2.29 2.32 2.21 2.14 2.07 1.92 1.82 1.79 1.74 1.64 1.67 1.78 1.91 2.12 2.35 2.45 2.65 2.85 3.02 3.23 3.26 3.09 2.90 2.74 2.45 2.33 2.19 1.93 1.85 1.68 1.51 1.49 1.31 1.18
1.72 1.80 1.84 1.89 1.86 1.91 1.95 1.73 1.68 1.66 1.85 1.96 2.03 2.01 1.77 1.62 1.71 1.62 1.64 1.60 1.61 1.73 1.85 2.11 2.30 2.40 2.66 2.87 3.12 3.25 3.24 3.13 2.95 2.77 2.62 2.50 2.17 1.95 1.74 1.61 1.53 1.25 1.10
1.80 1.79 1.83 1.87 1.94 1.91 1.81 1.58 1.57 1.53 1.66 1.78 1.85 1.88 1.85 1.78 1.77 1.81 1.72 1.60 1.51 1.59 1.69 1.66 1.73 1.91 2.20 2.59 2.76 2.81 2.99 3.03 2.90 2.71 2.61 2.57 2.30 2.07 1.86 1.74 1.66 1.35 1.16
2.04 2.00 2.07 2.10 2.06 1.96 1.82 1.62 1.62 1.58 1.68 1.72 1.72 1.73 1.74 1.69 1.78 1.65 1.55 1.54 1.53 1.57 1.55 1.51 1.47 1.51 1.67 1.90 2.25 2.42 2.54 2.51 2.40 2.16 2.03 2.09 2.06 2.03 1.97 1.85 1.68 1.54 1.32
2.48 2.49 2.37 2.22 2.09 1.97 1.93 1.64 1.56 1.50 1.59 1.67 1.74 1.68 1.61 1.50 1.49 1.43 1.40 1.52 1.51 1.52 1.55 1.48 1.37 1.29 1.25 1.41 1.75 1.95 2.07 2.13 2.03 1.95 1.68 1.66 1.70 1.76 1.88 1.74 1.59 1.52 1.45

GEFSMA_prec_meanprecacc_288.txt.gz
Total_Precipitation_Accumulation
2.66 2.67 2.71 2.75 2.57 2.67 2.85 3.11 2.98 3.05 3.13 2.91 2.64 2.56 2.74 2.83 2.88 2.88 2.95 3.12 3.01 3.09 3.69 3.91 3.55 3.11 2.92 2.49 2.24 1.95 1.74 1.63 1.47 1.21 1.05 1.04 1.10 1.18 1.12 0.98 0.93 0.90 0.79
2.98 2.93 2.74 2.79 2.65 2.61 2.73 2.99 3.03 3.42 3.45 3.41 2.95 2.75 2.81 2.83 2.84 2.95 2.91 3.21 3.13 2.97 3.37 3.74 3.83 3.63 3.39 3.09 2.80 2.46 2.18 2.03 1.82 1.48 1.28 1.16 1.17 1.23 1.19 1.20 1.13 1.08 1.01
3.04 3.00 2.93 2.76 2.72 2.77 2.99 3.07 3.10 3.39 3.42 3.42 3.31 3.05 2.89 2.64 2.52 2.65 2.69 2.85 2.84 2.83 3.07 3.40 3.67 3.76 3.77 3.60 3.43 3.19 2.78 2.43 2.14 1.79 1.50 1.28 1.16 1.21 1.23 1.26 1.28 1.26 1.23
2.96 3.10 2.94 2.68 2.76 2.73 2.93 3.27 3.40 3.58 3.77 3.77 3.53 3.21 2.98 2.86 2.64 2.60 2.48 2.46 2.73 2.42 2.72 3.13 3.37 3.55 4.00 4.26 4.33 4.30 3.79 3.10 2.51 2.19 1.90 1.60 1.38 1.30 1.26 1.29 1.33 1.29 1.21
2.81 3.03 2.91 2.81 2.83 3.00 3.05 2.84 3.46 3.80 3.96 3.93 3.27 3.13 2.79 2.68 2.53 2.36 2.42 2.30 2.48 2.55 2.64 2.66 2.81 3.04 3.85 4.68 5.05 5.13 4.90 4.04 3.22 2.78 2.50 2.16 1.84 1.58 1.37 1.36 1.38 1.27 1.12
2.71 3.02 2.76 2.77 2.90 3.20 3.30 3.36 3.80 3.88 3.75 3.95 3.28 2.91 2.52 2.18 2.12 2.13 2.00 2.05 2.11 2.08 2.31 2.73 3.07 2.81 3.33 3.98 4.39 4.74 5.09 4.95 4.25 3.44 3.05 2.74 2.48 2.13 1.77 1.59 1.51 1.44 1.28
2.84 3.29 2.94 3.22 3.12 3.17 3.21 3.38 3.66 3.67 3.46 3.78 3.79 3.10 2.29 1.82 1.80 1.70 1.70 1.82 1.78 1.79 2.07 2.62 3.00 3.07 2.89 2.77 3.00 3.51 4.24 4.77 4.71 4.06 3.62 3.36 3.22 2.81 2.37 2.10 1.85 1.68 1.55
2.95 3.03 3.26 3.17 3.20 3.30 3.09 3.18 3.51 3.35 2.97 3.38 3.73 3.70 2.87 2.32 1.85 1.35 1.50 1.58 1.66 1.84 1.83 1.90 2.37 2.92 2.88 2.93 2.62 2.47 3.13 3.96 4.50 4.55 4.21 3.88 3.65 3.30 2.89 2.57 2.21 1.91 1.65
2.98 3.05 3.00 2.96 3.09 3.03 2.99 3.00 3.19 3.29 3.11 3.11 3.50 3.87 3.25 2.56 2.03 1.54 1.45 1.40 1.68 2.02 1.99 1.96 2.14 2.53 2.72 2.98 3.08 2.90 2.65 2.91 3.80 4.88 5.03 4.42 3.67 3.12 2.86 2.81 2.70 2.39 2.15
3.25 3.02 2.84 2.79 2.80 2.71 2.80 2.58 2.87 3.09 3.22 2.93 3.06 3.11 2.98 2.88 2.72 2.04 1.61 1.48 1.73 1.96 2.07 2.04 2.10 2.32 2.51 2.85 3.12 2.93 2.42 2.22 2.68 3.85 4.65 4.63 4.05 3.27 2.88 3.03 3.37 3.23 2.82
3.28 2.91 2.86 2.84 2.80 2.68 2.56 2.50 2.72 2.67 2.78 2.79 2.83 2.86 2.92 2.90 2.69 2.43 2.04 1.87 1.79 1.56 1.57 1.73 1.97 2.21 2.34 2.58 2.93 2.79 2.54 2.44 2.41 2.61 3.08 3.50 3.74 3.53 3.22 3.27 3.73 3.98 3.79
2.86 2.64 2.58 2.62 2.54 2.54 2.52 2.49 2.52 2.49 2.57 2.67 2.68 2.67 2.80 2.81 2.75 2.76 2.44 2.19 1.97 1.67 1.58 1.64 1.81 1.98 2.08 2.19 2.24 2.42 2.36 2.34 2.22 2.11 2.15 2.27 2.57 2.96 3.23 3.54 4.01 4.43 4.62
2.12 2.12 2.21 2.28 2.22 2.26 2.28 2.43 2.36 2.28 2.39 2.55 2.53 2.52 2.60 2.62 2.66 2.77 2.68 2.23 2.05 1.87 1.90 1.75 1.64 1.83 1.88 2.09 2.27 2.24 1.98 1.97 1.83 1.75 1.77 1.82 2.01 2.27 2.51 2.80 3.34 3.95 4.38
1.84 1.92 2.03 2.02 1.98 2.00 1.96 2.24 2.12 2.07 2.18 2.25 2.14 2.46 2.47 2.23 2.45 2.63 2.69 2.67 2.45 2.28 2.30 2.02 1.78 1.77 1.89 2.04 2.19 2.13 1.83 1.72 1.51 1.40 1.41 1.44 1.49 1.65 1.90 2.18 2.47 2.80 3.16
1.83 1.91 1.90 1.95 1.95 1.99 2.05 2.17 2.03 1.99 2.19 2.15 2.10 2.32 2.28 2.13 2.23 2.35 2.58 2.78 2.92 2.71 2.53 2.33 2.01 1.82 1.83 1.91 2.16 1.98 1.98 1.84 1.52 1.41 1.35 1.29 1.25 1.31 1.47 1.68 1.87 2.07 2.34
1.90 1.94 1.94 2.02 1.95 1.92 1.95 2.00 1.79 1.81 2.05 2.11 2.17 2.37 2.32 2.22 2.29 2.36 2.52 2.82 3.11 3.10 2.69 2.21 2.03 1.93 2.01 1.96 2.19 1.95 1.88 1.92 1.65 1.42 1.31 1.30 1.26 1.26 1.33 1.49 1.65 1.81 1.96
1.92 1.88 1.85 1.85 1.86 1.83 1.88 1.91 1.70 1.84 2.01 2.06 2.08 2.23 2.28 2.41 2.46 2.47 2.59 2.73 3.00 3.23 2.91 2.36 2.25 2.23 2.35 2.32 2.23 2.00 1.78 1.68 1.51 1.45 1.30 1.23 1.22 1.25 1.30 1.36 1.50 1.64 1.74
1.90 1.93 1.92 1.86 1.76 1.79 1.98 2.04 1.91 1.99 2.10 2.08 2.11 2.25 2.15 2.33 2.50 2.45 2.56 2.58 2.70 3.04 2.91 2.63 2.59 2.53 2.50 2.40 2.40 2.23 1.91 1.73 1.66 1.62 1.41 1.29 1.25 1.22 1.24 1.27 1.37 1.55 1.68
1.96 2.04 2.06 2.06 2.04 2.07 2.09 2.16 2.24 2.20 2.13 2.06 2.11 2.11 2.08 2.27 2.27 2.37 2.49 2.48 2.48 2.65 2.83 2.76 2.71 2.78 2.73 2.62 2.57 2.39 2.20 2.13 1.81 1.72 1.63 1.53 1.51 1.48 1.44 1.42 1.42 1.49 1.61
2.01 2.12 2.13 2.25 2.42 2.47 2.46 2.42 2.32 2.25 2.20 2.16 2.12 2.07 2.02 2.04 2.07 2.17 2.28 2.39 2.48 2.62 2.77 2.80 2.84 2.96 2.92 2.97 2.97 2.75 2.60 2.51 2.18 1.80 1.80 1.69 1.64 1.53 1.44 1.37 1.34 1.39 1.51
1.86 2.17 2.32 2.41 2.68 2.81 2.62 2.63 2.56 2.44 2.44 2.26 2.13 2.03 1.89 1.91 1.97 2.00 1.95 2.08 2.25 2.41 2.45 2.54 2.66 2.88 2.94 3.05 3.03 2.88 2.74 2.74 2.56 2.11 1.95 1.82 1.75 1.63 1.60 1.56 1.46 1.39 1.40
1.75 1.94 2.08 2.20 2.25 2.09 2.24 2.27 2.25 2.30 2.33 2.22 2.14 2.07 1.92 1.83 1.80 1.75 1.65 1.68 1.79 1.93 2.13 2.37 2.46 2.67 2.88 3.04 3.25 3.29 3.12 2.93 2.77 2.48 2.38 2.25 1.99 1.89 1.71 1.55 1.53 1.34 1.21
1.73 1.81 1.85 1.90 1.87 1.92 1.95 1.74 1.68 1.67 1.85 1.97 2.03 2.02 1.78 1.63 1.72 1.63 1.65 1.62 1.62 1.75 1.87 2.12 2.31 2.41 2.67 2.88 3.14 3.27 3.27 3.16 2.99 2.82 2.67 2.56 2.22 1.99 1.77 1.64 1.56 1.28 1.12
1.81 1.80 1.84 1.88 1.94 1.92 1.82 1.59 1.57 1.53 1.67 1.78 1.85 1.89 1.86 1.79 1.78 1.82 1.73 1.62 1.53 1.60 1.70 1.67 1.73 1.92 2.21 2.60 2.78 2.83 3.01 3.06 2.94 2.76 2.68 2.65 2.36 2.12 1.89 1.78 1.70 1.38 1.19
2.05 2.00 2.08 2.10 2.06 1.96 1.83 1.63 1.63 1.58 1.69 1.72 1.72 1.73 1.74 1.70 1.79 1.67 1.58 1.56 1.55 1.58 1.56 1.53 1.48 1.53 1.69 1.93 2.28 2.45 2.57 2.54 2.44 2.21 2.09 2.16 2.12 2.09 2.02 1.89 1.71 1.57 1.34
2.50 2.52 2.38 2.23 2.10 1.98 1.94 1.65 1.57 1.50 1.59 1.67 1.74 1.69 1.62 1.50 1.50 1.45 1.43 1.54 1.53 1.54 1.59 1.52 1.41 1.34 1.30 1.46 1.80 2.00 2.11 2.17 2.07 2.01 1.74 1.72 1.75 1.81 1.91 1.75 1.61 1.55 1.47

GEFSMA_prec_meanprecacc_294.txt.gz
Total_Precipitation_Accumulation
2.70 2.72 2.80 2.86 2.69 2.77 2.94 3.19 3.07 3.13 3.18 2.95 2.68 2.61 2.79 2.87 2.93 2.96 3.02 3.19 3.07 3.13 3.77 4.01 3.65 3.21 3.03 2.61 2.35 2.06 1.86 1.75 1.60 1.33 1.17 1.14 1.17 1.24 1.18 1.04 1.01 0.98 0.86
3.01 2.96 2.79 2.86 2.73 2.69 2.80 3.05 3.09 3.49 3.51 3.45 2.98 2.78 2.86 2.92 2.92 3.02 2.96 3.27 3.19 3.01 3.43 3.83 3.93 3.76 3.52 3.22 2.93 2.59 2.30 2.16 1.95 1.59 1.38 1.25 1.25 1.30 1.26 1.28 1.24 1.18 1.11
3.07 3.02 2.95 2.80 2.77 2.83 3.06 3.12 3.15 3.45 3.47 3.46 3.34 3.09 2.94 2.71 2.60 2.73 2.74 2.89 2.88 2.87 3.12 3.46 3.74 3.86 3.88 3.75 3.63 3.40 2.94 2.57 2.27 1.90 1.60 1.38 1.25 1.29 1.30 1.33 1.36 1.35 1.31
2.99 3.13 2.97 2.72 2.80 2.77 2.98 3.32 3.45 3.63 3.81 3.81 3.56 3.24 3.02 2.90 2.68 2.68 2.55 2.52 2.78 2.46 2.77 3.18 3.42 3.61 4.08 4.35 4.45 4.47 3.94 3.22 2.62 2.31 2.01 1.72 1.48 1.39 1.33 1.37 1.40 1.36 1.28
2.85 3.07 2.96 2.85 2.86 3.03 3.08 2.88 3.49 3.83 3.99 3.95 3.29 3.15 2.81 2.70 2.56 2.40 2.47 2.35 2.53 2.60 2.68 2.71 2.86 3.10 3.94 4.78 5.15 5.31 5.15 4.24 3.39 2.94 2.64 2.31 1.96 1.68 1.45 1.43 1.45 1.35 1.22
2.76 3.06 2.80 2.80 2.92 3.23 3.33 3.39 3.82 3.89 3.76 3.97 3.29 2.92 2.53 2.19 2.16 2.17 2.04 2.08 2.15 2.12 2.37 2.80 3.14 2.88 3.39 4.04 4.46 4.82 5.21 5.08 4.40 3.62 3.20 2.89 2.61 2.25 1.87 1.67 1.60 1.54 1.38
2.89 3.33 2.97 3.24 3.15 3.20 3.24 3.41 3.68 3.68 3.48 3.80 3.81 3.11 2.30 1.83 1.84 1.75 1.74 1.86 1.84 1.85 2.15 2.71 3.07 3.13 2.95 2.83 3.05 3.55 4.30 4.84 4.77 4.12 3.69 3.43 3.28 2.90 2.47 2.20 1.95 1.78 1.64
2.99 3.06 3.28 3.19 3.22 3.32 3.12 3.20 3.52 3.37 2.99 3.40 3.74 3.71 2.88 2.34 1.87 1.40 1.55 1.62 1.72 1.91 1.93 2.02 2.47 2.98 2.93 2.98 2.66 2.52 3.19 4.04 4.57 4.61 4.26 3.92 3.68 3.35 2.97 2.65 2.30 1.98 1.73
3.00 3.07 3.02 2.97 3.11 3.07 3.01 3.01 3.20 3.30 3.12 3.13 3.52 3.88 3.26 2.58 2.05 1.57 1.48 1.43 1.71 2.06 2.05 2.05 2.23 2.61 2.79 3.02 3.12 2.95 2.73 3.00 3.86 4.93 5.07 4.45 3.71 3.16 2.91 2.88 2.78 2.45 2.21
3.27 3.03 2.85 2.80 2.81 2.73 2.82 2.60 2.89 3.10 3.23 2.95 3.08 3.13 2.99 2.90 2.73 2.06 1.64 1.51 1.75 1.98 2.09 2.06 2.14 2.37 2.58 2.90 3.19 3.01 2.52 2.30 2.75 3.92 4.70 4.68 4.09 3.30 2.91 3.09 3.45 3.32 2.89
3.30 2.93 2.88 2.86 2.81 2.69 2.58 2.51 2.73 2.68 2.80 2.81 2.86 2.89 2.94 2.91 2.70 2.45 2.06 1.89 1.81 1.57 1.58 1.74 1.98 2.23 2.39 2.64 3.01 2.88 2.65 2.54 2.48 2.67 3.12 3.54 3.78 3.57 3.27 3.34 3.82 4.10 3.89
2.88 2.65 2.60 2.64 2.56 2.57 2.56 2.51 2.53 2.49 2.58 2.68 2.69 2.69 2.82 2.83 2.77 2.78 2.45 2.20 1.99 1.68 1.58 1.65 1.81 1.99 2.12 2.25 2.30 2.48 2.46 2.45 2.30 2.16 2.18 2.29 2.60 3.00 3.29 3.63 4.12 4.55 4.73
2.14 2.13 2.22 2.29 2.23 2.28 2.31 2.46 2.38 2.30 2.39 2.56 2.56 2.54 2.62 2.63 2.68 2.79 2.69 2.24 2.06 1.87 1.90 1.75 1.64 1.83 1.88 2.10 2.29 2.27 2.02 2.02 1.88 1.79 1.80 1.85 2.04 2.30 2.57 2.89 3.45 4.04 4.48
1.86 1.94 2.04 2.03 1.99 2.02 1.97 2.26 2.15 2.10 2.20 2.26 2.16 2.49 2.50 2.26 2.46 2.63 2.70 2.68 2.45 2.28 2.30 2.02 1.78 1.78 1.89 2.04 2.20 2.14 1.84 1.74 1.53 1.42 1.44 1.47 1.52 1.68 1.94 2.24 2.53 2.86 3.23
1.86 1.92 1.91 1.96 1.95 2.00 2.06 2.19 2.06 2.01 2.21 2.17 2.11 2.35 2.31 2.16 2.25 2.37 2.58 2.79 2.93 2.71 2.53 2.33 2.01 1.83 1.84 1.91 2.17 1.99 1.99 1.85 1.53 1.42 1.37 1.31 1.27 1.34 1.50 1.72 1.92 2.14 2.42
1.95 1.95 1.94 2.03 1.95 1.93 1.96 2.01 1.80 1.82 2.07 2.13 2.18 2.38 2.34 2.24 2.31 2.38 2.53 2.82 3.12 3.11 2.69 2.21 2.03 1.94 2.02 1.96 2.19 1.95 1.88 1.92 1.66 1.42 1.32 1.31 1.27 1.28 1.35 1.51 1.68 1.85 2.02
1.95 1.89 1.85 1.86 1.86 1.84 1.89 1.92 1.71 1.85 2.01 2.07 2.09 2.24 2.29 2.42 2.48 2.49 2.60 2.74 3.01 3.24 2.91 2.36 2.25 2.23 2.35 2.33 2.23 2.00 1.78 1.69 1.51 1.46 1.31 1.24 1.23 1.26 1.31 1.37 1.52 1.67 1.77
1.91 1.93 1.92 1.87 1.76 1.79 1.99 2.05 1.91 2.00 2.10 2.09 2.12 2.26 2.16 2.33 2.50 2.46 2.57 2.59 2.71 3.05 2.92 2.64 2.59 2.53 2.50 2.40 2.40 2.23 1.91 1.73 1.66 1.63 1.41 1.30 1.26 1.23 1.26 1.29 1.39 1.57 1.71
1.96 2.04 2.06 2.06 2.04 2.08 2.09 2.16 2.25 2.21 2.13 2.07 2.12 2.12 2.08 2.28 2.28 2.38 2.50 2.49 2.50 2.67 2.84 2.76 2.71 2.78 2.74 2.62 2.57 2.39 2.20 2.13 1.81 1.72 1.63 1.53 1.51 1.49 1.45 1.43 1.44 1.50 1.62
2.01 2.12 2.14 2.26 2.43 2.47 2.46 2.42 2.32 2.25 2.20 2.17 2.13 2.08 2.03 2.05 2.08 2.18 2.29 2.41 2.50 2.64 2.78 2.81 2.85 2.96 2.93 2.98 2.97 2.75 2.60 2.51 2.18 1.80 1.81 1.70 1.64 1.54 1.45 1.38 1.35 1.41 1.52
1.87 2.18 2.33 2.42 2.69 2.81 2.62 2.63 2.56 2.44 2.44 2.27 2.14 2.05 1.90 1.92 1.98 2.01 1.97 2.10 2.26 2.42 2.47 2.56 2.67 2.89 2.94 3.05 3.04 2.89 2.75 2.75 2.56 2.12 1.96 1.83 1.76 1.64 1.61 1.57 1.47 1.41 1.42
1.76 1.95 2.09 2.20 2.25 2.09 2.24 2.27 2.25 2.30 2.33 2.22 2.15 2.08 1.93 1.83 1.81 1.76 1.66 1.69 1.81 1.95 2.15 2.39 2.48 2.69 2.89 3.05 3.26 3.29 3.12 2.94 2.78 2.49 2.39 2.26 2.00 1.90 1.72 1.56 1.55 1.36 1.23
1.74 1.82 1.85 1.90 1.87 1.92 1.96 1.74 1.68 1.67 1.85 1.97 2.03 2.03 1.79 1.64 1.73 1.64 1.66 1.63 1.64 1.77 1.90 2.15 2.32 2.42 2.68 2.89 3.15 3.28 3.28 3.17 2.99 2.83 2.69 2.58 2.24 2.00 1.78 1.66 1.59 1.32 1.16
1.82 1.81 1.85 1.88 1.95 1.93 1.83 1.60 1.58 1.54 1.67 1.79 1.86 1.90 1.87 1.80 1.80 1.83 1.74 1.62 1.54 1.62 1.73 1.69 1.75 1.94 2.22 2.61 2.80 2.85 3.04 3.08 2.96 2.78 2.70 2.66 2.37 2.13 1.91 1.80 1.72 1.42 1.24
2.06 2.02 2.10 2.12 2.08 1.98 1.84 1.65 1.65 1.59 1.70 1.73 1.74 1.75 1.76 1.71 1.81 1.70 1.60 1.58 1.56 1.59 1.59 1.56 1.51 1.55 1.72 1.96 2.32 2.49 2.59 2.56 2.45 2.21 2.10 2.17 2.14 2.11 2.04 1.91 1.74 1.61 1.38
2.54 2.55 2.42 2.25 2.12 2.00 1.96 1.68 1.60 1.52 1.60 1.68 1.76 1.71 1.64 1.52 1.52 1.48 1.45 1.56 1.54 1.55 1.61 1.55 1.43 1.36 1.32 1.49 1.83 2.02 2.14 2.19 2.08 2.02 1.75 1.73 1.77 1.84 1.95 1.79 1.64 1.59 1.51